User: anonymous   Login
Location: Maiden
(35.5760°N, 81.2120°W)
Time: 14:32:52
(UTC-04:00)
Language:

Cosmos 2151 - Orbit

View from above orbital plane
View from above orbital plane
View from above satellite
View from above satellite

Ground track
Ground track

The orbit data is extracted from the following two-line orbital elements,

1 21422U 91042A   17207.57140761 +.00000162 +00000-0 +13470-4 0  9993
2 21422 082.4990 208.9676 0014855 157.0760 203.1126 14.91837289414378
Epoch (UTC): 26 July 2017 13:42:49
Eccentricity: 0.0014855
inclination: 82.4990°
perigee height: 582 km
apogee height: 602 km
right ascension of ascending node: 208.9676°
argument of perigee: 157.0760°
revolutions per day: 14.91837289
mean anomaly at epoch: 203.1126°
orbit number at epoch: 41437

The dashed part of the orbit path shows where the satellite is in the earth's shadow,  

DLR